Location: Balsareny
(41.8670°N, 1.8830°E)
Time: 00:51:59
(UTC+02:00)

X-37B - Pass Details

Date: 27 June 2021
Orbit: 383 x 392 km, 45.0° (Epoch: 01 July)

Event Time Altitude Azimuth Distance (km) Brightness Sun altitude
Rises 00:22:52 0° 282° (WNW) 2,255 4.9 -21.4°
Reaches altitude 10° 00:25:00 10° 289° (WNW) 1,401 3.9 -21.5°
Maximum altitude 00:28:02 45° 4° (N) 533 1.6 -21.7°
Enters shadow 00:28:10 45° 12° (NNE) 535 1.6 -21.7°
